Weather History for Moline, IL

Change the Weather History Date:

Tuesday, October 28, 2014

  Actual Average Record
Temperature  
Mean Temperature 53 °F 49 °F  
Max Temperature 59 °F 59 °F 84 °F (1927)
Min Temperature 47 °F 39 °F 11 °F (1925)
Degree Days  
Heating Degree Days 12 16  
Month to date heating degree days 335 327  
Since 1 July heating degree days 459 431  
Cooling Degree Days 0 0  
Month to date cooling degree days 3 11  
Year to date cooling degree days 839 1000  
Growing Degree Days 2 (Base 50)    
Moisture  
Dew Point 37 °F    
Average Humidity 54    
Maximum Humidity 68    
Minimum Humidity 40    
Precipitation  
Precipitation T in 0.10 in 1.12 in (1961)
Month to date precipitation 2.80 2.67  
Year to date precipitation 37.00 32.92  
Snow  
Snow 0.00 in 0.00 in - ()
Month to date snowfall T 0.0  
Since 1 July snowfall T 0.0  
Since 1 September snowfall T 0.0  
Snow Depth 0.00 in    
Sea Level Pressure  
Sea Level Pressure 29.92 in    
Wind  
Wind Speed 17 mph (West)    
Max Wind Speed 25 mph    
Max Gust Speed 33 mph    
Visibility 10 miles    
Events Rain    
T = Trace of Precipitation, MM = Missing Value Source: NWS Daily Summary

Daily Weather History Graph

Daily Weather History Graph

Search for Another Location

Airport:

Trip Planner

Search our weather history database for the weather conditions in past years. The results will help you decide how hot, cold, wet, or windy it might be!

Date:

Astronomy

Oct. 28, 2014 Rise Set
Actual Time 7:28 AM CDT 6:02 PM CDT
Civil Twilight 7:00 AM CDT 6:30 PM CDT
Nautical Twilight 6:27 AM CDT 7:03 PM CDT
Astronomical Twilight 5:55 AM CDT 7:35 PM CDT
Moon 11:59 AM CDT (10/28) 10:06 PM CDT (10/28)
Length of Visible Light 11h 30m
Length of Day
10h 33m
Waxing Crescent, 24% of the Moon is Illuminated
Oct 28
Waxing Crescent
Oct 30
First Quarter
Nov 6
Full
Nov 14
Last Quarter
Nov 22
New

Hourly Weather History & Observations

Time (CDT) Temp. Dew Point Humidity Pressure Visibility Wind Dir Wind Speed Gust Speed Precip Events Conditions
12:52 AM 60.1 °F 46.9 °F 62% 29.71 in 10.0 mi WNW 19.6 mph 32.2 mph 0.00 in Rain Light Rain
1:52 AM 57.0 °F 46.0 °F 67% 29.76 in 10.0 mi WNW 21.9 mph 29.9 mph 0.00 in   Clear
2:52 AM 55.9 °F 39.9 °F 55% 29.79 in 10.0 mi WNW 19.6 mph 33.4 mph N/A   Clear
3:52 AM 54.0 °F 39.9 °F 59% 29.81 in 10.0 mi WNW 15.0 mph 21.9 mph N/A   Partly Cloudy
4:52 AM 53.6 °F 41.0 °F 62% 29.83 in 10.0 mi West 10.4 mph - N/A   Scattered Clouds
5:52 AM 51.8 °F 41.0 °F 67% 29.84 in 10.0 mi West 12.7 mph - N/A   Partly Cloudy
6:52 AM 51.1 °F 39.0 °F 63% 29.86 in 10.0 mi West 16.1 mph - N/A   Clear
7:52 AM 50.0 °F 37.9 °F 63% 29.88 in 10.0 mi West 16.1 mph 24.2 mph N/A   Clear
8:52 AM 50.0 °F 35.1 °F 57% 29.90 in 10.0 mi West 19.6 mph 27.6 mph N/A   Clear
9:52 AM 51.1 °F 35.1 °F 54% 29.91 in 10.0 mi West 20.7 mph 27.6 mph N/A   Clear
10:52 AM 53.1 °F 34.0 °F 48% 29.93 in 10.0 mi West 25.3 mph 32.2 mph N/A   Clear
11:52 AM 55.0 °F 34.0 °F 45% 29.95 in 10.0 mi West 17.3 mph - 0.00 in Rain Light Rain
11:55 AM 55.0 °F 34.0 °F 45% 29.95 in 10.0 mi West 18.4 mph - 0.00 in   Clear
12:52 PM 55.9 °F 35.1 °F 45% 29.95 in 10.0 mi West 19.6 mph 29.9 mph 0.00 in   Clear
1:52 PM 55.9 °F 35.1 °F 45% 29.94 in 10.0 mi West 18.4 mph 31.1 mph N/A   Mostly Cloudy
2:52 PM 57.0 °F 34.0 °F 42% 29.94 in 10.0 mi West 16.1 mph 29.9 mph N/A   Scattered Clouds
3:52 PM 55.9 °F 34.0 °F 44% 29.95 in 10.0 mi West 21.9 mph 29.9 mph N/A   Mostly Cloudy
4:52 PM 54.0 °F 34.0 °F 47% 29.99 in 10.0 mi West 17.3 mph 24.2 mph N/A   Overcast
5:52 PM 54.0 °F 33.1 °F 45% 30.00 in 10.0 mi West 17.3 mph 29.9 mph N/A   Overcast
6:52 PM 53.1 °F 33.1 °F 47% 30.03 in 10.0 mi West 12.7 mph - N/A   Overcast
7:52 PM 52.0 °F 34.0 °F 50% 30.03 in 10.0 mi West 11.5 mph - N/A   Mostly Cloudy
8:52 PM 50.0 °F 33.1 °F 52% 30.03 in 10.0 mi West 16.1 mph - N/A   Clear
9:52 PM 48.0 °F 32.0 °F 54% 30.03 in 10.0 mi West 12.7 mph - N/A   Clear
10:52 PM 46.9 °F 32.0 °F 56% 30.04 in 10.0 mi WNW 12.7 mph 21.9 mph N/A   Clear
11:52 PM 46.9 °F 32.0 °F 56% 30.03 in 10.0 mi West 12.7 mph - N/A   Scattered Clouds